Location: LDNL
(36.4545°S, 141.6685°E)
Time: 12:39:20
(UTC+10:00)

Tiros 1 despin weight - Pass Details

Date: 10 August 2022
Orbit: 590 x 639 km, 48.2° (Epoch: 23 September)

Event Time Altitude Azimuth Distance (km) Brightness Sun altitude
Rises 02:18:28 0° 279° (W) 2,918 - -59.7°
Reaches altitude 10° 02:20:57 10° 269° (W) 2,022 - -59.3°
Maximum altitude 02:25:13 34° 203° (SSW) 1,053 - -58.6°
Drops below altitude 10° 02:29:33 10° 137° (SE) 2,050 - -57.8°
Sets 02:32:05 0° 128° (SE) 2,965 - -57.4°
